Wind_Speed
11 12 12 12 13 13 14 14 14 14 14 15 15 15 15 16 16 17 17 17 18 18 19 19 19 20 20 20 20 20 20 20 20 20 20 20 21 22 23 24 26 27 29 30 30 31 31 31 31 31 31 31 31 32 33 33 33 33 32 32 31 30 28 27 25 23 22 20 19 20 20 21 22 22 22 22 22 22 21 20 21 21 22 22 22 22
11 12 12 12 12 13 13 14 14 13 14 14 15 15 16 16 17 18 18 19 19 19 19 20 20 20 20 20 20 20 20 19 19 20 20 21 22 23 25 26 28 29 29 30 30 30 30 30 30 30 31 31 32 32 33 33 32 32 31 30 29 28 27 25 23 22 21 20 20 20 21 21 22 22 22 22 22 22 21 21 21 22 22 22 22 22
11 11 11 12 12 12 12 13 13 13 13 14 14 15 16 16 17 18 19 19 19 20 19 19 19 19 19 19 19 19 19 19 19 20 21 23 24 25 27 27 28 28 29 29 29 29 29 30 30 31 32 32 33 33 32 32 31 30 29 28 27 26 25 23 22 21 20 20 20 20 21 21 21 22 22 22 22 22 22 22 22 22 22 22 22 23
10 11 11 12 12 12 12 12 12 12 13 13 14 15 16 16 17 18 18 19 19 19 19 19 18 18 18 18 18 18 19 19 20 21 23 24 25 26 27 27 27 27 28 28 28 29 29 30 31 32 32 32 32 32 31 31 30 28 27 26 25 24 23 22 21 20 19 19 19 20 21 21 21 21 21 21 22 22 22 22 22 22 22 22 22 23
10 10 10 11 11 11 11 11 12 12 13 13 14 14 15 16 16 17 18 18 18 18 18 17 17 17 17 18 18 19 19 20 22 23 24 25 26 26 26 26 26 27 27 28 28 29 30 31 32 32 32 32 31 31 30 29 28 27 25 24 23 22 22 21 20 19 19 19 19 20 20 21 21 21 21 21 21 22 22 22 22 22 22 22 22 23
9 9 10 10 10 10 10 11 11 12 13 13 13 14 14 14 15 16 16 16 16 16 16 16 16 17 17 18 19 20 21 22 24 25 25 25 25 25 25 26 26 27 27 28 29 30 31 31 31 31 31 30 29 29 28 27 26 25 24 23 22 21 21 20 19 19 18 19 19 20 20 21 21 21 21 21 21 22 22 22 22 22 22 22 23 23
9 9 9 9 9 10 10 11 11 12 12 13 13 13 13 13 14 14 14 14 14 15 15 16 16 17 19 20 21 22 23 24 25 25 25 25 25 26 26 26 27 28 28 29 30 30 31 30 30 30 29 28 27 27 26 25 24 23 22 22 21 20 20 19 19 19 19 19 20 20 20 21 21 21 21 22 22 22 22 22 22 22 23 23 23 23
8 8 8 8 9 10 10 11 11 12 13 13 13 14 13 13 13 13 13 13 13 14 15 16 18 19 21 22 23 24 25 25 25 26 26 26 26 27 27 28 29 29 29 30 30 30 30 29 28 28 27 26 26 25 24 24 23 22 21 21 20 20 19 19 19 19 19 19 20 20 20 21 21 21 22 22 22 22 22 23 23 23 23 23 23 23
7 8 8 8 9 10 10 11 12 13 13 14 14 14 14 14 14 14 14 14 14 15 17 18 20 22 23 24 24 25 25 26 26 26 27 28 28 29 29 30 30 30 30 30 29 29 28 27 26 26 25 25 24 24 23 22 22 21 20 20 20 20 19 19 19 19 20 20 20 20 21 21 21 22 22 22 22 22 23 23 23 23 23 23 23 23
7 8 8 9 10 10 11 11 13 13 14 14 13 13 13 14 14 15 15 16 18 19 20 22 23 24 24 25 25 25 26 26 27 27 28 29 30 30 31 31 30 30 30 29 28 28 27 26 25 24 24 23 23 22 22 21 21 20 20 20 20 20 20 20 20 20 20 20 21 21 21 21 21 22 22 22 22 23 23 23 23 23 23 23 23 23
8 9 9 10 10 11 11 12 13 13 14 13 13 13 14 15 16 17 19 20 21 23 24 25 25 25 26 26 25 26 26 27 28 29 30 30 31 31 31 30 30 30 29 28 27 26 25 25 24 23 22 22 22 21 21 20 20 20 20 20 20 20 20 20 20 21 21 21 21 21 21 22 22 22 22 22 22 23 23 23 23 23 23 23 23 23
9 9 10 10 11 12 12 13 13 13 13 14 15 16 17 18 19 20 21 23 24 25 25 26 26 26 26 26 26 27 27 28 29 30 31 31 31 31 30 29 29 28 28 27 26 25 24 24 23 22 21 21 21 21 20 20 20 20 20 20 20 20 21 21 21 22 22 22 21 21 21 22 22 22 22 22 23 23 23 23 23 23 23 22 22 22
10 10 10 11 11 12 13 13 14 14 15 16 17 18 19 20 21 22 23 24 25 26 26 26 27 27 27 27 27 28 28 29 29 30 31 30 30 30 29 28 27 27 27 26 25 24 23 23 22 21 21 21 21 21 21 21 21 21 21 21 21 21 22 22 23 23 23 22 22 22 21 21 21 22 22 22 22 23 23 23 23 23 22 22 22 22
10 11 11 12 12 13 14 14 15 15 16 17 18 19 20 21 23 24 24 25 25 26 26 26 27 27 28 28 28 29 29 29 29 30 30 29 29 28 28 27 26 26 26 25 24 24 23 23 22 22 22 21 22 22 22 22 22 22 22 22 22 22 23 23 23 23 23 23 22 21 21 21 21 21 22 22 22 22 22 23 23 23 22 22 22 22
11 12 12 13 13 14 14 15 15 16 17 18 19 20 21 22 23 24 24 25 25 26 26 26 27 27 28 29 30 30 30 29 29 29 28 28 27 27 27 26 26 25 25 25 24 24 24 23 23 23 23 23 23 23 23 23 23 23 23 24 23 23 23 23 23 23 23 22 22 21 21 21 21 21 21 22 22 22 22 22 22 22 22 22 22 22
12 13 13 13 14 14 14 15 16 17 18 19 20 21 22 23 23 24 24 25 25 26 27 28 28 28 27 28 30 31 30 29 28 28 27 27 26 26 26 26 26 25 25 24 24 24 24 24 24 24 24 24 24 24 24 24 24 24 24 24 24 24 23 23 23 23 22 22 21 21 20 20 21 21 21 21 22 22 22 22 22 22 22 22 22 21
13 14 14 14 14 15 15 15 16 17 18 19 20 21 22 23 23 24 24 25 26 27 27 28 29 29 27 26 28 30 29 28 28 27 27 26 26 26 26 25 25 25 25 24 24 24 24 25 25 25 25 25 25 25 25 25 25 24 24 24 24 23 23 22 22 22 21 21 21 20 20 20 21 21 21 21 21 22 22 22 22 22 22 22 21 21
14 15 15 15 15 15 15 16 17 18 19 20 21 22 22 23 23 24 24 25 26 27 28 28 28 28 27 25 26 28 28 27 27 27 27 27 26 25 25 25 25 24 24 24 24 24 24 24 25 25 25 26 26 26 25 25 24 24 23 23 23 22 22 22 21 21 21 20 20 20 20 20 21 21 21 21 22 22 22 22 22 22 21 21 21 20
15 15 15 15 15 15 16 17 19 19 21 21 22 22 23 23 23 24 25 25 26 27 27 28 28 27 27 26 26 27 27 26 27 27 27 27 26 26 25 25 24 23 23 23 23 23 24 24 24 24 25 25 25 25 25 25 24 23 23 22 22 22 21 21 21 21 20 20 20 20 20 21 21 21 21 21 22 22 22 22 22 21 21 20 20 20
15 15 15 15 15 16 17 18 19 20 21 21 22 22 22 23 23 24 25 25 25 26 26 27 26 26 25 25 25 26 26 26 27 27 27 27 26 25 25 24 24 23 22 22 21 22 22 23 23 23 24 24 24 24 24 24 23 23 22 22 22 21 21 21 21 20 20 20 20 20 20 20 21 21 21 21 21 21 21 21 21 21 21 20 20 19
15 15 15 15 15 16 17 18 19 20 20 21 21 21 22 22 23 24 24 25 25 25 25 25 25 25 25 25 24 25 26 26 27 27 27 27 25 25 24 24 23 23 23 22 21 20 21 21 22 22 22 23 23 24 24 24 23 23 22 22 22 21 21 21 20 20 20 20 20 20 20 20 20 20 21 21 21 21 21 21 21 20 20 20 19 19
15 15 15 14 15 16 17 17 18 19 19 20 21 21 22 23 23 24 24 24 24 24 24 24 24 24 25 25 25 25 25 25 26 26 27 27 25 24 24 23 23 22 22 22 21 19 19 19 20 21 21 22 23 23 23 23 23 23 23 22 22 22 21 21 20 20 20 20 19 19 19 19 19 20 20 21 21 21 21 21 20 20 20 19 19 18
14 14 14 14 15 16 16 17 18 18 18 19 20 21 21 22 23 23 23 23 23 23 23 23 24 25 26 26 26 26 25 25 25 25 26 25 24 24 25 24 23 23 22 22 20 19 17 18 19 20 21 22 23 23 23 23 23 23 23 23 22 22 21 21 20 20 19 19 18 18 18 18 19 19 20 20 21 21 21 20 20 20 19 19 18 18
14 14 15 15 16 17 17 17 18 18 18 19 20 20 21 22 22 22 22 23 23 23 23 24 25 25 25 25 26 25 25 25 25 25 25 25 24 24 25 25 25 24 23 22 20 18 17 17 19 20 22 23 23 23 23 23 24 24 23 23 23 22 21 20 20 19 18 18 18 18 18 18 18 19 19 20 20 20 20 20 20 19 19 18 17 15
14 15 15 16 17 17 18 18 18 18 19 19 20 21 21 22 22 22 23 23 23 23 24 24 24 24 23 22 23 24 25 24 24 25 25 25 24 24 24 25 25 25 24 23 21 19 18 18 19 21 22 23 23 24 24 23 23 23 23 23 22 21 20 20 19 18 18 17 17 17 17 18 18 19 19 19 19 20 20 20 20 19 18 17 15 13
15 15 16 17 17 17 18 18 18 18 19 20 20 20 21 21 22 22 23 23 23 24 24 24 24 23 23 22 22 23 24 24 24 24 24 25 25 24 25 25 25 25 24 24 23 21 20 20 21 22 23 24 24 24 23 23 23 23 22 22 21 20 19 19 18 17 17 17 17 17 17 18 18 18 19 19 19 19 19 20 19 19 18 16 14 12
15 16 16 17 17 17 17 17 18 18 19 19 20 20 21 21 21 22 22 23 23 23 24 24 24 24 24 23 22 23 23 23 23 23 23 23 24 24 25 25 25 25 25 24 24 24 23 22 23 24 25 25 25 24 23 23 22 22 22 21 21 20 19 18 17 17 17 17 17 17 17 17 18 18 18 18 18 18 19 19 19 19 18 17 15 14
15 16 16 16 16 16 16 17 17 18 19 19 19 20 20 21 21 21 21 22 23 23 23 24 24 24 23 22 22 22 23 24 23 23 23 22 22 23 24 25 25 26 26 26 26 25 24 23 24 25 26 26 25 25 24 23 22 22 22 21 20 19 19 18 18 18 17 17 17 17 17 17 17 17 17 18 18 18 18 19 19 20 19 19 18 17
14 15 15 15 15 15 16 16 17 18 19 19 20 20 20 21 21 21 22 22 23 23 23 23 23 23 23 22 22 22 22 23 23 23 23 22 22 23 24 24 25 27 28 28 28 27 26 23 23 25 27 27 27 26 25 24 23 23 22 22 21 20 19 19 19 18 18 18 18 18 17 17 17 17 17 17 17 18 18 19 19 20 20 20 20 20
14 14 14 14 14 15 16 16 17 18 19 19 20 20 21 21 21 21 22 22 22 22 22 22 22 22 22 23 22 21 20 21 22 23 23 22 22 23 24 24 25 26 28 29 30 30 29 26 25 26 28 28 28 27 26 26 26 25 24 23 22 21 20 19 19 19 18 18 18 18 18 17 17 17 17 17 17 18 18 18 19 20 20 21 21 21
14 14 14 14 14 15 16 17 18 19 19 20 20 20 21 21 21 21 21 22 22 21 21 21 21 21 21 22 21 19 19 20 21 22 22 21 22 23 24 24 25 26 27 28 28 28 29 30 29 28 29 29 29 28 28 28 28 27 27 26 24 23 21 20 20 19 19 18 18 18 18 19 18 18 18 18 18 18 18 19 19 19 20 21 21 21
13 13 14 14 15 16 17 18 19 19 20 20 20 21 21 21 21 21 21 21 21 21 20 20 20 20 20 20 20 20 20 21 21 21 21 21 21 22 23 24 25 26 26 27 26 24 25 29 32 32 31 31 30 30 29 29 29 29 29 28 27 25 23 22 22 21 21 20 20 19 20 20 20 20 20 20 20 20 20 19 19 19 20 20 21 21
13 13 14 15 16 17 18 19 19 20 20 20 21 21 21 21 21 21 21 21 21 20 20 20 20 19 19 19 19 19 20 21 21 21 21 21 21 22 23 24 25 26 27 27 27 26 25 27 31 34 34 33 32 31 30 30 30 30 30 29 28 27 26 25 24 24 23 23 22 22 21 21 21 21 21 21 21 21 21 21 20 20 19 20 20 21
13 13 14 16 17 18 19 19 20 20 20 20 20 21 21 21 21 21 21 20 20 20 19 19 19 19 19 19 19 19 19 20 20 20 20 21 21 22 23 24 25 26 27 28 28 28 28 29 30 32 34 34 33 32 31 31 31 31 30 30 29 29 28 27 26 26 26 25 25 25 24 24 23 23 22 22 22 22 22 21 20 20 19 19 20 20
13 14 15 17 18 18 19 20 20 20 20 20 20 21 21 21 21 21 20 20 20 19 19 19 18 19 19 19 20 19 19 20 20 20 20 21 22 23 23 24 25 26 27 28 29 30 31 31 31 32 33 34 34 33 32 32 32 32 31 30 30 29 28 27 27 27 27 27 27 26 26 26 25 25 25 24 24 23 22 21 20 19 19 19 19 20
15 16 17 17 18 19 19 20 20 20 20 20 21 21 21 21 21 20 20 20 20 19 19 18 18 18 18 19 19 20 20 20 20 20 21 22 22 23 24 24 25 26 27 28 29 30 31 32 33 33 33 33 33 33 33 33 33 33 33 32 31 30 29 28 27 27 27 28 28 27 27 27 27 27 27 26 26 25 23 22 20 19 18 18 18 19
16 17 17 18 19 19 19 20 20 20 20 21 21 21 21 21 20 20 20 20 19 19 19 19 18 18 18 19 19 20 20 20 21 21 22 23 24 24 25 26 26 26 27 28 29 30 31 32 33 33 33 32 32 33 34 35 35 35 34 34 32 31 30 29 28 28 28 28 28 28 28 28 28 28 29 28 28 27 25 23 21 19 18 17 17 18
17 18 18 19 19 19 20 20 20 20 20 21 21 21 20 20 20 20 20 20 19 19 20 19 19 19 19 19 19 20 21 21 22 22 23 24 25 25 26 27 27 27 27 27 28 29 30 31 32 33 33 33 33 33 34 35 36 36 35 34 33 31 30 29 29 28 28 29 29 29 29 29 29 30 30 30 30 29 28 26 24 21 19 17 17 17
18 18 19 19 19 19 19 20 20 20 20 20 20 20 20 20 20 20 20 20 20 20 20 20 21 21 21 20 20 20 21 21 22 23 24 24 25 25 26 27 27 27 27 27 27 28 28 29 30 31 31 32 33 34 34 34 35 35 35 35 34 33 31 30 30 29 29 29 30 30 30 30 30 31 31 31 31 31 30 29 26 24 22 21 19 18
18 18 19 19 19 19 19 19 19 19 19 19 19 19 20 20 20 20 20 20 21 21 21 22 22 22 22 22 22 21 21 21 22 23 23 24 24 24 25 25 26 26 26 26 26 26 26 27 28 29 30 31 32 33 34 34 34 34 34 35 35 34 33 32 31 30 30 30 30 31 31 32 32 32 32 32 32 31 31 29 27 25 23 23 22 22
18 18 18 19 19 19 19 19 19 19 19 19 19 19 19 19 19 19 20 20 21 22 22 23 23 23 23 23 22 22 21 21 22 22 22 23 23 23 23 24 24 25 25 25 25 25 25 26 27 27 28 29 30 31 32 33 33 33 32 32 33 34 34 33 32 31 31 31 31 32 32 33 34 34 34 34 33 32 30 29 28 26 24 23 22 23
18 18 18 18 18 18 18 18 18 18 18 18 18 19 19 19 19 19 20 20 21 21 22 22 22 22 22 22 22 21 21 21 21 21 21 21 21 21 22 22 23 24 24 25 25 25 25 25 25 26 26 27 28 30 32 33 33 32 31 31 33 35 36 35 33 32 32 33 33 33 34 34 35 35 35 35 34 32 31 29 28 27 25 24 23 23
18 18 18 18 18 18 18 18 18 18 18 18 18 18 19 19 19 19 20 20 21 21 21 21 21 21 22 21 21 20 20 19 19 19 19 19 20 21 22 23 24 25 25 26 26 26 26 25 25 25 25 26 27 29 32 33 34 33 32 31 31 32 33 34 35 35 35 35 35 35 34 35 35 36 36 36 35 33 32 31 30 28 27 25 25 24
17 17 17 17 17 17 17 18 18 18 18 18 18 18 19 19 19 19 20 20 21 21 21 21 21 21 22 22 22 21 20 20 20 20 20 21 22 23 24 25 25 26 26 26 26 27 27 26 25 25 25 25 27 29 31 32 34 34 33 32 30 29 30 33 35 36 36 37 36 36 35 36 36 37 37 36 35 34 33 32 31 30 29 27 27 26
17 17 17 17 17 17 17 17 17 17 18 18 18 18 19 19 19 20 21 21 21 21 22 22 22 22 22 22 22 22 22 22 22 22 23 23 24 25 26 26 27 27 27 26 26 26 26 26 26 26 25 26 27 28 29 31 32 33 33 32 31 31 32 34 34 35 36 36 37 37 37 37 37 38 38 37 36 35 34 33 32 31 30 29 28 28
16 16 16 16 17 17 17 17 17 17 17 18 18 18 19 19 20 20 21 21 21 21 22 22 22 23 23 23 23 23 23 23 24 24 24 25 25 26 27 27 28 28 28 28 28 27 27 26 26 26 26 27 28 28 29 30 31 32 33 33 33 34 35 35 35 35 35 36 37 38 39 38 38 38 38 39 38 37 35 34 33 32 31 30 29 29
16 16 16 16 16 17 17 17 17 17 17 18 18 18 19 19 20 20 21 21 21 21 22 22 22 22 22 23 23 24 24 25 25 25 26 26 26 27 28 29 29 30 30 30 29 29 28 27 26 25 25 26 27 29 30 30 30 31 32 33 34 35 36 36 36 36 36 37 38 39 40 39 39 39 40 40 39 38 37 35 34 33 32 31 30 29
16 16 16 16 16 16 17 17 17 17 17 18 18 19 19 20 20 20 21 21 21 21 22 22 22 22 22 23 23 24 24 25 26 27 27 28 28 29 29 30 31 32 32 32 32 31 31 29 27 25 24 25 26 29 31 32 32 32 32 33 34 35 36 37 38 38 38 38 39 39 39 38 38 38 39 39 40 39 38 37 36 34 33 32 31 31
15 15 16 16 16 16 16 17 17 17 17 18 18 19 19 19 20 20 20 21 21 21 22 22 22 22 22 23 23 24 24 25 26 27 28 29 30 31 31 32 33 34 34 34 34 34 33 32 29 26 25 25 26 29 32 33 34 33 33 33 33 34 36 37 38 39 39 40 40 40 39 38 38 37 37 37 38 39 40 39 38 37 35 34 33 33
15 15 15 16 16 16 16 17 17 17 17 18 18 18 19 19 19 20 20 20 21 21 22 22 22 23 23 23 23 24 25 26 27 27 28 29 30 32 33 34 35 36 37 37 37 37 37 36 33 29 27 26 27 29 31 33 34 34 34 34 34 34 36 37 39 40 40 40 40 40 39 38 38 37 36 36 37 38 40 40 39 38 37 36 35 35
15 15 15 15 16 16 16 17 17 17 17 18 18 18 19 19 19 20 20 20 21 21 22 22 23 23 24 24 24 24 25 26 27 28 29 30 31 32 33 34 36 37 38 38 38 39 39 38 36 33 30 28 28 28 29 30 32 33 34 35 35 35 36 38 39 40 40 40 39 39 39 38 37 36 35 35 36 37 39 39 40 39 38 37 37 37
Wind_Direction
309 310 311 312 314 314 315 315 316 317 317 318 319 321 322 323 323 322 323 324 326 327 329 330 330 330 330 329 328 326 325 325 325 326 327 327 327 326 324 322 321 320 319 318 318 317 317 316 316 315 315 315 315 316 316 317 317 317 317 317 316 315 315 314 313 312 311 311 311 310 309 309 307 307 307 308 310 311 312 313 313 311 310 312 313 314
311 312 313 315 317 317 317 318 319 320 321 323 324 325 326 327 327 327 327 329 331 333 334 334 334 333 332 331 329 328 328 329 329 330 330 329 327 324 323 321 320 320 319 319 319 318 318 317 317 317 317 317 317 318 318 319 319 319 319 318 317 316 316 315 314 312 312 312 312 312 311 310 310 310 311 312 314 315 315 315 314 313 313 315 316 315
313 314 316 318 319 320 320 320 321 323 325 327 328 329 330 331 331 331 332 334 335 336 337 337 336 335 334 333 332 332 333 333 333 332 330 327 325 323 322 321 321 321 321 320 320 319 319 318 318 318 318 319 320 321 321 321 321 321 320 319 318 318 317 316 314 313 313 314 314 314 314 313 313 313 314 315 316 316 316 316 315 315 316 316 316 315
316 317 320 322 322 321 321 323 325 328 330 332 333 333 335 335 335 335 335 336 338 339 339 339 338 338 337 337 337 337 336 335 333 330 328 325 324 323 322 322 322 322 322 321 321 320 320 320 320 321 322 322 323 323 323 323 323 322 321 320 319 319 318 317 315 315 315 316 317 316 315 315 315 316 316 317 317 317 316 316 316 316 317 317 316 314
321 323 324 325 326 325 325 328 331 334 335 337 338 339 339 338 338 337 338 338 340 340 341 341 341 341 340 340 339 337 335 333 330 328 326 325 324 324 324 324 324 323 323 323 322 322 322 322 323 324 325 325 325 325 325 324 323 323 322 322 321 320 319 318 317 317 318 318 318 317 316 316 317 317 317 317 317 317 316 316 317 317 317 317 315 314
327 328 329 330 330 331 332 335 337 340 342 342 342 342 342 341 340 339 340 341 342 343 343 344 344 343 342 340 337 335 332 330 328 327 326 326 327 327 327 327 326 326 325 325 324 325 325 326 326 327 327 327 327 327 326 325 325 324 324 324 323 322 321 319 319 319 320 320 319 318 318 318 319 319 319 318 318 317 317 317 317 318 317 316 315 314
333 334 336 338 338 338 340 342 344 345 345 344 344 343 343 343 343 343 343 344 345 346 346 345 344 342 339 337 334 332 331 329 329 329 329 330 330 331 330 330 329 328 328 328 328 328 328 329 329 329 329 329 329 328 327 327 326 326 326 326 325 324 323 322 321 321 322 321 320 320 320 320 321 321 320 319 318 318 318 318 318 318 318 317 315 315
341 342 344 347 347 347 348 348 348 347 347 346 345 345 346 347 347 348 348 348 348 347 345 343 341 338 336 335 333 332 332 332 332 332 333 333 333 333 332 332 331 330 330 331 331 331 332 332 332 332 332 331 330 330 329 328 328 328 328 328 328 327 326 325 324 324 323 322 321 321 321 322 322 321 321 320 319 318 318 318 318 318 317 316 316 316
352 353 353 354 356 356 354 351 350 350 351 350 349 349 350 352 352 352 351 349 347 345 342 339 337 336 335 334 334 334 335 336 336 336 336 335 335 334 334 333 333 333 333 334 334 335 335 335 335 335 334 333 332 332 331 330 330 330 330 331 331 330 329 327 326 325 324 323 322 322 322 323 322 321 320 320 319 319 319 319 318 318 317 317 316 317
3 4 3 1 0 0 360 356 354 354 355 354 354 354 355 357 356 353 350 347 344 342 340 338 336 336 336 336 337 338 339 339 339 339 338 337 336 335 335 335 335 335 336 337 337 338 338 338 338 337 336 335 334 333 333 332 332 332 332 332 333 333 331 329 328 326 325 324 323 323 322 322 322 321 321 320 320 320 319 319 318 318 317 317 317 317
12 10 9 8 5 2 2 1 359 358 358 358 359 0 2 1 358 353 349 345 343 341 340 339 338 338 340 341 342 343 343 343 341 340 339 337 336 336 337 337 338 338 338 339 340 341 340 340 340 339 338 337 336 335 335 334 334 333 333 333 334 333 333 330 328 327 326 324 323 322 321 321 321 321 321 321 320 320 320 319 319 318 318 318 318 318
19 15 12 10 8 7 6 5 5 4 5 5 6 5 4 0 357 352 349 346 344 344 344 343 342 343 344 346 346 347 347 345 343 341 340 338 338 338 339 340 341 341 341 341 342 343 342 342 342 341 340 339 339 338 337 336 335 334 334 333 333 332 331 330 328 327 326 324 323 321 320 320 321 321 321 321 321 321 320 319 319 318 319 319 319 318
21 18 15 13 12 11 11 12 12 12 12 12 9 6 1 357 354 351 350 348 348 347 348 348 348 347 347 347 348 349 348 346 344 342 340 339 339 340 341 343 343 343 342 343 344 344 344 344 343 343 343 342 341 340 339 338 337 335 334 333 331 330 329 328 326 326 325 324 323 321 320 320 321 322 322 322 321 321 320 320 319 319 319 319 319 318
23 20 18 17 17 18 19 20 19 18 15 12 9 4 359 355 353 352 352 352 351 351 352 353 353 351 348 347 348 349 348 347 344 342 340 340 341 342 343 345 345 345 344 344 345 346 346 346 346 345 345 344 343 341 340 338 337 336 334 332 331 329 328 327 326 325 325 324 323 322 321 321 322 322 322 322 321 321 320 320 319 319 319 319 318 317
26 24 23 24 26 28 28 26 22 18 13 9 5 0 357 355 355 355 356 355 355 354 354 354 354 352 348 347 347 348 347 346 344 342 341 342 343 345 346 347 347 347 347 346 346 347 348 348 348 347 346 344 343 341 339 338 337 336 334 333 331 330 329 328 327 326 326 326 324 323 322 322 323 323 323 322 321 321 320 320 319 319 318 318 317 317
31 31 31 33 35 35 31 27 21 15 10 5 2 359 359 359 359 358 358 357 356 356 355 354 353 352 349 346 345 346 346 344 343 342 342 345 346 348 349 350 350 349 348 348 348 348 348 348 348 346 345 343 341 340 339 338 337 336 335 334 333 332 331 330 330 329 329 328 326 324 323 323 323 323 323 322 322 321 320 320 319 319 318 318 317 317
39 39 39 40 39 35 29 22 16 11 6 3 1 1 1 2 1 1 0 359 358 356 355 353 352 351 349 345 343 343 344 344 343 343 345 348 350 351 352 353 353 351 350 349 349 349 349 348 346 344 342 341 340 339 339 339 338 337 336 336 335 334 333 333 332 332 331 330 329 326 325 324 323 323 323 322 321 321 321 320 320 320 319 319 318 318
46 45 43 41 37 30 22 16 11 7 4 4 4 4 4 4 3 2 1 359 357 355 353 352 350 348 346 342 340 341 344 345 345 345 347 350 353 354 355 355 354 352 350 349 348 348 347 346 344 342 340 339 339 339 340 341 341 340 339 339 338 337 336 335 335 334 333 333 331 329 327 325 324 323 322 322 322 322 321 321 320 320 320 320 320 320
50 46 42 37 31 23 17 12 9 7 6 6 6 6 7 6 4 2 1 358 356 354 352 350 348 346 345 342 342 344 345 346 347 348 349 353 355 356 356 356 355 353 351 350 348 347 345 344 342 340 338 338 339 341 342 343 343 343 342 342 341 340 339 338 336 336 335 335 334 332 330 327 326 325 324 324 324 324 324 324 323 322 322 322 323 324
49 44 38 31 24 18 14 12 10 9 9 8 8 7 7 5 3 1 359 356 354 352 350 348 346 345 344 345 346 347 347 349 350 350 351 354 356 357 357 356 354 352 351 350 349 346 344 341 339 337 337 339 342 344 345 346 346 345 345 344 343 342 340 339 338 337 337 337 337 336 334 331 329 328 328 327 327 327 327 326 326 326 326 326 327 327
43 38 31 24 19 17 15 13 12 12 12 10 8 7 5 3 1 359 357 354 352 351 349 348 346 345 345 347 349 350 350 351 351 351 352 355 357 358 356 356 354 353 352 351 349 346 343 340 337 337 338 342 345 347 348 347 347 347 346 345 344 342 341 340 339 339 339 339 339 339 338 336 335 333 332 330 329 329 328 328 327 327 328 328 329 329
35 31 26 22 19 17 16 16 16 15 13 11 9 6 4 1 359 357 355 353 352 350 349 347 346 346 347 350 352 353 353 354 353 352 353 356 357 356 355 355 355 354 352 351 350 347 344 341 339 340 343 347 350 350 350 349 349 348 347 346 344 343 341 341 340 340 341 341 341 341 340 340 339 338 336 334 332 330 329 328 328 328 328 329 329 328
28 26 23 21 20 19 19 19 18 17 14 12 9 6 3 360 357 355 354 353 352 351 349 348 348 350 351 353 354 355 355 355 354 354 355 356 355 354 354 354 355 355 354 353 351 350 348 346 345 346 349 352 352 351 351 350 350 349 347 345 344 342 342 341 341 341 341 341 341 342 341 341 340 339 338 337 334 332 330 328 327 327 327 328 327 327
26 25 24 23 22 21 21 20 19 17 14 12 8 5 2 359 357 355 354 353 353 352 351 351 353 355 355 353 352 353 355 355 355 355 356 356 355 354 353 353 353 353 354 354 354 353 353 353 353 353 354 354 353 352 351 351 350 349 347 345 343 342 341 341 341 340 340 340 341 341 341 341 341 340 338 337 336 334 332 330 328 327 327 326 326 326
27 27 26 25 24 22 21 19 17 15 13 10 7 4 1 358 356 355 355 356 355 354 354 356 358 359 356 353 350 350 353 355 356 356 355 354 354 354 353 353 352 351 352 353 355 355 357 359 359 358 356 354 353 352 351 351 350 348 346 344 343 342 341 340 339 338 337 337 338 339 340 340 340 340 339 338 336 335 333 332 330 328 327 326 325 326
31 30 28 26 24 22 20 18 16 13 11 8 6 3 1 358 357 357 358 358 357 356 356 358 359 358 357 356 353 351 352 355 357 357 355 353 352 352 352 351 351 350 350 352 353 355 358 0 1 359 356 354 353 352 351 350 349 347 346 344 342 341 340 339 337 335 334 334 335 336 337 338 339 340 340 339 338 337 335 334 332 331 330 328 325 324
33 32 29 27 24 21 19 16 14 12 10 8 6 4 2 0 360 360 360 359 358 358 358 358 358 358 358 357 355 353 353 356 358 357 355 353 351 351 350 349 349 349 349 350 352 355 357 359 358 357 354 353 352 352 350 349 348 347 346 344 342 340 338 337 335 333 331 331 331 333 334 336 338 340 341 341 340 339 337 335 334 333 333 331 328 326
35 33 30 26 23 20 17 15 12 11 9 8 7 6 4 3 3 3 2 1 0 360 360 359 358 358 358 357 356 354 354 355 356 356 355 353 351 350 350 348 348 349 349 349 351 353 356 356 354 352 350 350 350 351 350 349 348 347 346 343 341 338 336 335 333 331 329 329 329 330 331 332 335 337 339 341 341 340 338 336 334 333 333 332 331 329
37 34 30 26 22 19 16 14 12 11 10 9 9 8 7 6 6 5 4 3 2 2 1 0 359 358 357 357 357 357 356 354 354 354 353 352 350 349 349 349 349 349 349 349 350 352 354 352 350 348 347 348 349 350 350 350 349 347 346 343 341 338 336 334 332 330 329 328 328 328 328 329 331 334 336 338 339 338 337 335 333 331 330 329 329 328
38 34 29 25 21 18 16 14 14 13 13 12 11 10 9 9 8 7 6 5 4 3 2 1 0 359 357 357 358 357 354 353 353 352 352 351 349 349 349 350 350 350 350 349 348 348 349 349 349 347 347 348 349 350 350 350 349 348 346 344 342 339 337 335 333 331 330 328 327 326 325 326 327 329 331 333 334 335 335 333 331 329 327 326 325 324
37 32 28 24 21 19 17 16 16 16 16 15 13 12 11 11 10 9 8 7 6 5 4 3 1 0 359 357 356 353 349 350 352 352 351 350 349 348 348 350 351 351 350 349 346 342 340 344 347 348 348 349 349 350 350 349 348 347 346 344 343 341 340 338 336 334 332 330 327 325 324 323 323 323 324 326 328 329 330 330 328 326 323 321 319 319
35 31 27 24 22 20 19 19 19 18 18 16 15 14 13 13 12 11 10 8 7 6 4 4 3 2 1 359 356 352 349 349 350 350 350 349 348 348 349 350 351 350 349 348 344 338 333 334 340 346 348 349 349 350 350 349 348 346 345 344 343 343 342 341 339 337 335 333 330 327 325 323 321 320 320 320 321 322 324 324 323 321 318 315 313 312
34 31 28 25 23 22 22 21 21 20 19 18 17 16 15 15 14 13 11 10 8 7 5 4 3 2 1 360 357 353 351 350 349 348 347 348 349 349 350 351 351 349 348 346 344 339 333 330 334 340 343 346 348 349 349 348 347 346 345 344 344 344 344 343 341 339 338 336 334 331 329 327 324 322 321 320 319 319 319 318 317 316 313 310 307 305
35 32 29 27 26 25 24 23 22 21 20 19 18 17 17 16 15 14 12 11 9 8 7 5 3 1 360 358 357 354 352 350 348 346 345 346 348 350 351 352 351 348 346 344 342 340 336 333 333 334 337 342 345 347 346 345 345 345 345 344 344 343 344 343 342 340 338 336 335 334 332 331 329 328 326 324 322 320 318 316 314 311 308 305 302 300
36 34 32 30 28 27 25 24 23 22 22 21 20 19 18 17 16 15 13 12 10 9 8 7 6 3 1 358 356 354 352 350 348 346 344 347 349 350 351 352 350 347 345 343 341 339 336 335 335 334 334 338 341 343 344 343 343 344 344 344 343 343 343 343 341 339 337 336 335 334 333 333 332 331 330 329 327 324 321 317 314 309 305 301 298 295
37 35 33 32 30 28 27 25 24 23 23 22 21 20 19 18 17 15 14 12 11 10 9 8 7 6 4 0 357 354 351 349 348 346 346 348 350 351 351 350 349 346 343 341 339 337 335 335 336 336 335 334 335 338 341 342 343 343 344 344 344 343 344 344 342 339 336 335 334 334 333 333 332 331 331 330 329 328 325 322 318 312 306 299 294 291
39 36 35 33 31 29 27 26 24 24 23 23 22 21 20 18 17 16 14 13 12 10 10 9 8 7 6 3 359 356 353 351 349 348 348 350 351 351 349 347 347 345 341 338 337 336 335 334 335 336 336 333 331 333 337 341 343 343 343 343 343 343 344 344 343 340 336 334 334 334 334 333 332 331 330 330 330 330 329 327 324 318 310 301 293 287
39 37 35 33 31 30 28 27 25 24 24 23 22 21 20 18 17 15 14 13 12 11 10 9 8 7 6 4 1 358 355 352 350 350 350 350 351 349 347 345 344 342 339 336 334 334 333 332 332 332 332 333 333 334 336 338 339 340 341 342 342 342 342 342 342 340 337 335 334 334 334 333 332 331 330 330 330 330 329 328 327 324 318 310 300 292
40 37 35 33 31 30 28 27 26 25 24 23 21 20 19 18 17 15 14 13 12 11 10 9 7 6 5 4 2 359 356 353 351 350 350 350 349 347 344 341 339 338 337 335 334 333 332 331 330 329 329 331 333 336 338 338 337 336 338 340 342 343 343 342 341 339 337 335 333 332 332 332 331 330 329 329 329 328 327 327 327 326 323 319 313 306
40 37 35 33 31 30 29 28 27 26 25 23 22 20 19 18 16 15 13 12 11 10 9 8 7 5 4 3 1 359 356 353 351 350 350 349 347 344 341 337 335 335 335 335 334 333 332 331 331 331 331 330 331 333 335 335 335 335 335 335 336 339 342 342 341 339 337 334 331 329 330 330 330 330 329 328 328 327 327 327 327 327 325 321 317 313
40 37 35 34 32 31 30 29 28 27 25 24 22 21 19 18 16 14 12 11 11 9 8 6 5 3 2 1 359 358 356 354 352 351 350 347 345 342 339 336 335 336 337 338 338 338 336 334 333 333 333 332 331 330 331 333 334 334 333 331 331 335 339 340 339 337 334 332 330 329 329 330 330 330 329 328 327 327 327 326 326 326 326 322 317 313
39 38 36 34 32 31 30 29 28 27 25 24 23 21 20 18 17 15 13 12 11 10 8 6 4 2 1 359 359 358 357 355 354 353 351 348 345 343 342 342 343 344 344 344 344 343 342 339 337 335 334 332 329 328 329 333 335 335 333 331 332 335 338 339 338 335 331 330 330 331 330 329 329 329 328 328 327 328 328 327 327 326 325 323 319 314
40 38 36 35 33 32 30 29 28 27 25 24 23 21 19 18 16 15 13 12 11 10 9 7 5 2 1 2 2 1 0 360 359 357 356 354 352 351 351 351 351 351 350 348 346 346 346 344 341 338 336 333 329 327 327 332 335 336 335 333 332 329 328 331 334 335 332 331 331 330 329 328 327 327 327 327 328 328 328 327 327 326 325 323 320 316
40 39 37 35 34 32 31 30 29 27 25 24 22 20 18 16 15 13 13 11 10 8 7 5 3 2 2 2 3 3 4 4 4 4 2 1 360 359 358 357 356 355 352 349 347 346 347 346 344 341 337 333 329 328 329 331 333 334 335 333 330 324 320 324 328 331 332 331 330 329 327 327 327 327 328 328 328 327 326 326 325 325 325 323 321 317
41 39 37 36 34 33 32 30 28 26 25 23 22 20 18 15 13 12 11 10 9 7 5 3 2 2 2 2 1 2 4 6 6 6 5 4 2 1 360 358 357 355 354 352 350 348 346 344 344 343 341 336 331 328 329 330 331 332 332 331 328 324 323 325 326 327 327 328 328 328 327 327 327 327 327 327 327 327 326 324 324 324 324 323 320 317
41 40 38 36 35 33 31 30 28 26 24 23 21 19 17 15 13 11 9 8 7 5 4 2 2 2 2 1 1 3 5 6 7 7 6 5 3 2 1 360 358 357 355 354 353 352 350 346 344 343 341 336 333 332 331 330 329 328 329 329 327 326 326 326 326 326 325 325 326 327 328 328 327 326 324 325 325 325 325 324 323 322 322 321 318 316
42 40 38 36 35 33 31 29 27 25 23 21 19 17 15 14 12 10 8 6 5 4 3 3 2 2 1 1 1 2 4 5 7 8 7 6 4 3 1 0 359 358 357 355 354 353 352 351 349 345 340 334 331 331 333 332 329 327 326 327 326 325 324 325 326 327 326 325 325 327 328 328 326 325 324 325 324 324 324 323 323 321 320 319 317 315
42 40 38 36 35 33 31 28 26 25 22 20 18 16 14 12 11 9 7 5 3 3 3 2 2 1 1 1 2 2 3 4 5 6 5 4 4 3 2 0 359 358 358 357 356 354 353 353 352 349 344 336 331 330 332 333 332 329 328 326 325 324 324 325 327 329 329 328 328 328 328 326 324 323 323 323 322 322 322 322 322 322 321 320 318 316
42 40 39 37 35 33 30 28 26 23 21 19 17 15 12 10 9 7 6 4 3 3 3 2 1 2 2 2 2 3 4 4 5 5 4 3 2 2 2 1 359 358 358 358 357 356 355 355 355 352 347 341 335 332 333 333 333 332 329 327 325 324 324 326 328 330 331 330 331 331 330 327 325 324 322 320 319 319 321 322 324 325 325 323 322 320
42 41 38 37 35 32 30 27 25 22 20 18 16 13 11 9 7 6 5 5 4 4 3 2 2 2 2 2 3 3 4 4 5 5 4 3 2 1 1 0 359 358 358 358 357 356 355 355 355 354 350 345 340 336 333 333 333 332 330 328 327 326 325 326 329 331 332 332 332 332 331 329 328 326 322 319 317 318 320 322 325 328 329 328 326 325
42 40 38 36 34 32 29 26 23 21 18 16 13 11 9 7 7 6 6 5 5 5 4 3 2 2 2 2 3 4 4 5 4 4 4 3 2 1 0 360 359 358 357 356 355 354 353 352 352 351 350 348 342 336 332 329 329 329 329 330 330 330 328 328 330 333 334 333 333 333 332 330 329 326 323 319 316 316 318 321 325 329 333 333 332 330
Height
1466 1465 1465 1464 1464 1463 1462 1462 1462 1462 1462 1461 1461 1461 1460 1459 1459 1458 1457 1457 1456 1455 1454 1453 1452 1451 1450 1448 1447 1446 1445 1444 1443 1442 1441 1440 1439 1437 1436 1435 1434 1432 1431 1429 1428 1427 1425 1423 1422 1420 1419 1417 1416 1414 1412 1411 1409 1407 1406 1404 1402 1401 1400 1399 1397 1397 1396 1395 1394 1393 1392 1390 1389 1388 1386 1385 1383 1382 1381 1380 1379 1379 1377 1377 1376 1375
1465 1465 1464 1463 1463 1462 1462 1462 1462 1462 1461 1461 1460 1459 1459 1458 1457 1457 1456 1456 1455 1454 1453 1452 1451 1450 1449 1447 1447 1445 1444 1443 1442 1441 1440 1439 1438 1437 1435 1434 1432 1431 1429 1428 1426 1425 1423 1422 1420 1418 1417 1415 1414 1412 1410 1408 1407 1405 1403 1402 1400 1399 1398 1397 1396 1395 1394 1393 1392 1391 1390 1389 1387 1386 1385 1383 1382 1381 1380 1379 1378 1377 1376 1376 1375 1374
1464 1464 1463 1463 1462 1462 1462 1462 1462 1461 1461 1460 1459 1459 1458 1457 1457 1456 1455 1454 1454 1453 1452 1451 1450 1449 1448 1447 1446 1445 1443 1442 1441 1440 1439 1438 1437 1435 1434 1432 1431 1429 1428 1426 1425 1423 1422 1420 1418 1417 1415 1413 1412 1410 1408 1406 1405 1403 1402 1400 1399 1397 1396 1395 1394 1393 1392 1392 1390 1389 1388 1387 1386 1385 1383 1382 1381 1380 1379 1378 1377 1376 1375 1374 1373 1372
1464 1463 1462 1462 1462 1462 1462 1462 1461 1461 1460 1460 1459 1458 1457 1457 1456 1455 1454 1454 1453 1452 1452 1451 1450 1448 1447 1446 1445 1444 1443 1442 1441 1440 1438 1437 1435 1434 1432 1431 1429 1428 1426 1425 1423 1422 1420 1418 1417 1415 1413 1411 1409 1407 1406 1404 1403 1401 1400 1398 1397 1396 1395 1394 1393 1392 1391 1390 1389 1388 1387 1386 1384 1383 1382 1381 1380 1379 1378 1377 1376 1375 1374 1373 1372 1372
1463 1463 1462 1462 1462 1462 1462 1461 1461 1460 1460 1459 1458 1458 1457 1456 1456 1455 1454 1453 1452 1452 1451 1450 1449 1448 1447 1446 1445 1443 1442 1441 1440 1439 1437 1436 1434 1432 1431 1429 1428 1427 1425 1423 1422 1420 1418 1417 1415 1413 1411 1409 1407 1406 1404 1403 1401 1400 1398 1397 1396 1395 1394 1393 1392 1391 1390 1389 1388 1387 1386 1384 1383 1382 1381 1380 1379 1378 1377 1376 1375 1374 1373 1372 1371 1370
1463 1462 1462 1462 1462 1462 1461 1461 1460 1460 1459 1458 1458 1457 1457 1456 1456 1455 1454 1453 1452 1452 1451 1449 1448 1447 1447 1445 1444 1443 1442 1441 1439 1437 1436 1434 1433 1431 1430 1428 1427 1425 1423 1422 1420 1418 1417 1415 1413 1411 1409 1407 1406 1404 1403 1401 1400 1399 1397 1396 1395 1394 1392 1392 1391 1390 1389 1387 1387 1385 1384 1383 1382 1381 1380 1378 1377 1377 1376 1375 1373 1372 1372 1371 1370 1368
1462 1462 1462 1462 1462 1461 1461 1460 1460 1459 1459 1458 1458 1457 1457 1457 1456 1455 1454 1453 1452 1451 1450 1449 1448 1447 1446 1445 1443 1442 1441 1439 1438 1436 1435 1433 1432 1430 1428 1427 1425 1423 1422 1420 1418 1417 1415 1413 1411 1409 1408 1406 1405 1403 1402 1400 1399 1397 1396 1395 1394 1393 1392 1391 1390 1389 1387 1387 1385 1384 1383 1382 1381 1380 1378 1377 1376 1375 1374 1373 1372 1371 1370 1369 1368 1367
1462 1462 1462 1462 1461 1461 1460 1460 1459 1459 1459 1458 1458 1457 1457 1456 1456 1455 1454 1453 1452 1451 1450 1449 1448 1447 1445 1444 1442 1441 1440 1438 1436 1435 1433 1432 1430 1428 1427 1425 1423 1422 1420 1418 1417 1415 1413 1412 1410 1408 1407 1405 1403 1402 1401 1399 1398 1397 1395 1394 1393 1392 1391 1390 1389 1387 1387 1386 1384 1383 1382 1381 1380 1379 1377 1376 1375 1374 1373 1372 1371 1370 1369 1368 1367 1366
1462 1462 1462 1461 1461 1460 1460 1459 1459 1459 1459 1458 1458 1457 1457 1456 1455 1455 1454 1452 1452 1451 1449 1448 1447 1446 1444 1443 1441 1440 1438 1437 1435 1433 1431 1430 1428 1427 1425 1423 1422 1420 1418 1417 1415 1413 1412 1410 1409 1407 1406 1404 1402 1401 1400 1398 1397 1396 1395 1393 1392 1391 1390 1389 1388 1387 1386 1385 1383 1382 1381 1380 1379 1377 1377 1375 1374 1373 1372 1371 1370 1369 1367 1367 1365 1364
1462 1461 1461 1460 1460 1460 1460 1459 1459 1459 1458 1458 1457 1457 1457 1456 1455 1454 1453 1452 1451 1449 1448 1447 1446 1444 1442 1441 1440 1438 1437 1435 1433 1432 1430 1428 1426 1425 1423 1422 1420 1418 1417 1415 1414 1412 1411 1409 1408 1406 1405 1403 1402 1400 1399 1398 1396 1395 1394 1392 1392 1390 1389 1388 1387 1386 1385 1383 1382 1381 1380 1379 1378 1377 1375 1374 1373 1372 1371 1370 1368 1367 1366 1365 1364 1363
1461 1461 1460 1460 1460 1460 1460 1459 1459 1459 1458 1458 1457 1457 1456 1455 1454 1453 1452 1451 1449 1448 1447 1445 1444 1442 1441 1439 1438 1437 1436 1434 1432 1430 1428 1427 1425 1423 1422 1420 1419 1417 1415 1414 1413 1411 1410 1408 1407 1405 1404 1402 1401 1400 1398 1397 1396 1394 1393 1392 1391 1390 1388 1387 1386 1385 1384 1382 1381 1380 1379 1378 1377 1376 1374 1373 1372 1371 1370 1368 1367 1366 1365 1364 1363 1362
1461 1460 1460 1460 1460 1460 1460 1459 1459 1459 1458 1457 1457 1456 1455 1454 1453 1452 1451 1449 1448 1447 1445 1443 1442 1441 1440 1438 1437 1436 1434 1433 1431 1429 1427 1425 1424 1422 1421 1419 1418 1416 1415 1413 1412 1410 1409 1407 1406 1405 1403 1402 1400 1399 1397 1396 1395 1394 1392 1391 1390 1389 1387 1386 1385 1384 1383 1382 1380 1379 1378 1377 1376 1374 1373 1372 1371 1370 1368 1367 1366 1365 1364 1362 1362 1360
1460 1460 1460 1460 1460 1460 1460 1459 1459 1458 1458 1457 1456 1455 1454 1453 1452 1451 1450 1448 1447 1445 1444 1442 1441 1439 1438 1437 1437 1435 1433 1432 1430 1428 1427 1425 1423 1421 1420 1418 1417 1416 1414 1412 1411 1410 1408 1407 1405 1404 1403 1401 1400 1398 1397 1396 1394 1393 1392 1390 1389 1388 1387 1385 1384 1383 1382 1380 1379 1378 1377 1376 1374 1373 1372 1371 1370 1368 1367 1366 1365 1363 1362 1361 1360 1359
1460 1460 1460 1460 1460 1460 1460 1459 1459 1458 1457 1457 1456 1455 1454 1453 1451 1450 1448 1447 1446 1444 1443 1442 1441 1439 1437 1436 1435 1434 1433 1431 1430 1428 1426 1424 1423 1421 1419 1418 1417 1415 1413 1412 1410 1409 1408 1406 1405 1403 1402 1400 1399 1397 1396 1395 1393 1392 1391 1389 1388 1387 1386 1384 1383 1382 1380 1379 1378 1377 1376 1374 1373 1372 1371 1370 1369 1367 1366 1365 1363 1362 1361 1360 1359 1357
1460 1460 1460 1460 1460 1460 1460 1459 1459 1458 1457 1457 1456 1455 1453 1452 1451 1449 1448 1446 1445 1444 1442 1442 1441 1439 1437 1436 1434 1433 1432 1431 1429 1427 1426 1424 1422 1421 1419 1417 1416 1414 1413 1411 1409 1408 1407 1405 1404 1402 1401 1400 1398 1397 1395 1394 1392 1391 1390 1388 1387 1386 1384 1383 1382 1380 1379 1378 1377 1376 1374 1373 1372 1371 1370 1368 1367 1366 1365 1363 1362 1361 1360 1358 1357 1356
1461 1461 1461 1461 1460 1460 1460 1459 1459 1458 1457 1456 1455 1454 1452 1451 1450 1448 1447 1446 1445 1443 1442 1441 1439 1438 1437 1435 1434 1432 1431 1430 1428 1427 1425 1423 1422 1420 1418 1417 1415 1413 1412 1410 1409 1407 1406 1404 1403 1402 1400 1399 1397 1396 1395 1393 1392 1390 1389 1387 1386 1384 1383 1382 1380 1379 1378 1377 1376 1374 1373 1372 1371 1370 1368 1367 1366 1365 1363 1362 1361 1360 1358 1357 1356 1355
1461 1461 1461 1461 1460 1460 1460 1459 1458 1458 1457 1456 1455 1453 1452 1451 1449 1448 1447 1446 1444 1443 1442 1441 1439 1437 1437 1435 1434 1432 1431 1429 1428 1426 1424 1422 1421 1420 1418 1416 1414 1412 1411 1409 1408 1407 1405 1404 1402 1401 1400 1398 1397 1395 1394 1392 1391 1389 1388 1386 1385 1383 1382 1381 1379 1378 1377 1376 1374 1373 1372 1371 1370 1369 1367 1366 1365 1363 1362 1361 1360 1358 1357 1356 1354 1353
1461 1461 1461 1461 1460 1460 1459 1459 1458 1457 1456 1455 1454 1453 1452 1450 1449 1448 1447 1446 1444 1443 1442 1441 1439 1438 1437 1435 1434 1432 1431 1429 1427 1425 1423 1422 1420 1419 1417 1416 1414 1412 1411 1409 1407 1406 1405 1403 1402 1401 1399 1398 1396 1395 1393 1392 1390 1388 1387 1385 1384 1382 1381 1380 1378 1377 1376 1375 1373 1372 1371 1370 1369 1367 1366 1365 1363 1362 1361 1359 1358 1357 1356 1354 1353 1352
1461 1461 1461 1461 1460 1460 1459 1458 1458 1457 1456 1454 1453 1452 1451 1450 1449 1448 1447 1446 1445 1443 1442 1441 1439 1438 1437 1435 1434 1432 1430 1428 1427 1425 1423 1421 1419 1418 1417 1415 1414 1412 1411 1409 1407 1406 1404 1403 1402 1400 1399 1397 1396 1394 1392 1391 1389 1388 1386 1385 1383 1382 1380 1379 1377 1376 1375 1374 1372 1371 1370 1369 1368 1366 1365 1364 1362 1361 1360 1358 1357 1356 1354 1353 1352 1351
1461 1461 1461 1460 1460 1460 1459 1458 1457 1456 1455 1454 1453 1452 1451 1451 1450 1448 1447 1446 1445 1443 1442 1441 1439 1438 1437 1435 1433 1432 1429 1427 1426 1424 1422 1421 1419 1418 1417 1415 1413 1412 1410 1409 1407 1406 1404 1403 1401 1400 1398 1397 1395 1394 1392 1390 1389 1387 1386 1384 1382 1381 1380 1378 1377 1376 1374 1373 1372 1370 1369 1368 1367 1365 1364 1363 1361 1360 1359 1357 1356 1355 1353 1352 1351 1350
1461 1461 1460 1460 1460 1459 1459 1458 1457 1456 1455 1454 1453 1452 1452 1451 1450 1448 1447 1446 1445 1443 1442 1441 1439 1438 1436 1435 1433 1431 1429 1427 1425 1423 1422 1420 1419 1418 1417 1415 1413 1412 1410 1409 1407 1406 1404 1403 1401 1400 1398 1397 1395 1393 1392 1390 1388 1387 1385 1384 1382 1381 1379 1378 1376 1375 1374 1372 1371 1370 1368 1367 1366 1365 1363 1362 1361 1359 1358 1357 1355 1354 1352 1351 1350 1349
1461 1461 1460 1460 1460 1459 1459 1458 1457 1456 1455 1454 1454 1453 1452 1451 1449 1448 1447 1446 1445 1443 1442 1441 1439 1437 1436 1434 1432 1431 1429 1427 1426 1424 1422 1420 1418 1417 1417 1415 1413 1412 1410 1408 1407 1406 1404 1403 1401 1399 1398 1396 1394 1393 1391 1390 1388 1387 1385 1383 1382 1380 1379 1377 1376 1374 1373 1372 1370 1369 1368 1367 1365 1364 1362 1361 1360 1358 1357 1356 1354 1353 1352 1351 1349 1348
1461 1461 1460 1460 1460 1459 1458 1458 1457 1456 1456 1455 1454 1453 1452 1451 1450 1448 1447 1446 1445 1443 1442 1441 1439 1437 1435 1433 1431 1430 1428 1427 1426 1424 1422 1420 1418 1417 1416 1414 1413 1412 1410 1408 1407 1405 1404 1402 1401 1399 1397 1396 1394 1393 1391 1389 1388 1386 1384 1383 1381 1380 1378 1377 1375 1374 1372 1371 1370 1368 1367 1366 1364 1363 1362 1360 1359 1357 1356 1355 1353 1352 1351 1350 1349 1347
1461 1461 1460 1460 1459 1459 1458 1457 1457 1457 1456 1455 1454 1453 1452 1451 1450 1449 1447 1446 1444 1443 1441 1439 1437 1435 1433 1432 1431 1429 1428 1427 1425 1423 1422 1420 1419 1417 1416 1414 1412 1411 1410 1408 1407 1405 1404 1402 1400 1398 1397 1395 1394 1392 1391 1389 1387 1386 1384 1382 1381 1379 1378 1376 1375 1373 1372 1371 1369 1368 1367 1365 1364 1362 1361 1359 1358 1357 1355 1354 1352 1351 1350 1349 1348 1347
1461 1460 1460 1459 1459 1458 1458 1457 1457 1457 1456 1455 1454 1453 1452 1451 1449 1448 1447 1445 1444 1442 1441 1439 1437 1436 1434 1433 1431 1430 1428 1427 1425 1423 1422 1420 1418 1417 1416 1414 1412 1411 1409 1408 1407 1405 1403 1402 1400 1398 1397 1395 1393 1392 1390 1389 1387 1386 1384 1382 1381 1379 1377 1376 1374 1373 1372 1370 1369 1367 1366 1365 1363 1362 1360 1359 1357 1356 1354 1353 1352 1350 1349 1348 1347 1346
1461 1460 1460 1459 1459 1459 1458 1458 1457 1457 1456 1455 1454 1453 1452 1451 1449 1447 1446 1445 1443 1442 1440 1438 1437 1436 1435 1433 1432 1430 1428 1427 1425 1424 1422 1420 1418 1417 1416 1414 1413 1411 1409 1407 1406 1404 1403 1401 1399 1398 1396 1395 1393 1392 1390 1388 1387 1385 1383 1382 1380 1378 1377 1375 1374 1372 1371 1369 1368 1367 1365 1364 1362 1361 1360 1358 1357 1355 1353 1352 1351 1349 1348 1347 1346 1345
1461 1460 1460 1460 1460 1459 1459 1458 1458 1457 1456 1455 1454 1453 1452 1450 1449 1447 1446 1445 1443 1442 1440 1438 1437 1436 1434 1433 1432 1430 1428 1427 1425 1424 1423 1421 1419 1417 1416 1414 1412 1411 1409 1407 1405 1404 1402 1400 1399 1397 1396 1394 1393 1391 1390 1388 1387 1385 1383 1382 1380 1378 1377 1375 1373 1372 1370 1369 1367 1366 1365 1363 1362 1360 1359 1357 1356 1354 1353 1351 1350 1348 1347 1346 1345 1344
1461 1461 1461 1461 1460 1460 1459 1459 1458 1457 1456 1455 1454 1453 1452 1450 1449 1447 1446 1445 1443 1442 1440 1438 1437 1436 1434 1433 1432 1430 1428 1426 1425 1424 1423 1421 1420 1418 1416 1414 1412 1410 1408 1407 1405 1403 1402 1400 1399 1397 1396 1394 1392 1391 1389 1387 1386 1384 1382 1381 1379 1378 1376 1374 1373 1371 1370 1368 1367 1365 1364 1362 1361 1359 1358 1357 1355 1353 1352 1351 1349 1348 1346 1345 1344 1343
1462 1462 1462 1461 1461 1460 1459 1459 1458 1457 1456 1455 1454 1452 1451 1450 1449 1447 1446 1444 1443 1442 1440 1439 1437 1436 1434 1433 1432 1430 1428 1427 1425 1424 1423 1421 1420 1418 1417 1415 1412 1410 1408 1406 1404 1402 1401 1400 1399 1397 1396 1394 1392 1390 1388 1387 1385 1383 1382 1380 1379 1377 1376 1374 1372 1370 1369 1367 1366 1364 1363 1361 1360 1358 1357 1356 1354 1353 1351 1350 1348 1347 1345 1344 1343 1342
1463 1462 1462 1462 1461 1460 1460 1459 1458 1457 1456 1455 1453 1452 1451 1450 1448 1447 1446 1444 1443 1442 1440 1439 1437 1436 1434 1432 1431 1430 1429 1427 1426 1425 1423 1421 1419 1418 1416 1414 1412 1410 1408 1406 1403 1401 1400 1399 1398 1397 1395 1393 1391 1389 1387 1386 1384 1382 1380 1379 1377 1376 1374 1373 1371 1369 1368 1366 1365 1363 1362 1360 1359 1357 1356 1355 1353 1352 1351 1349 1347 1346 1344 1343 1342 1341
1463 1463 1462 1462 1461 1460 1460 1459 1458 1457 1456 1455 1453 1452 1451 1450 1448 1447 1446 1444 1443 1442 1441 1439 1437 1436 1434 1432 1431 1430 1429 1428 1427 1425 1423 1422 1420 1418 1416 1414 1412 1411 1409 1407 1404 1402 1399 1397 1396 1396 1394 1392 1390 1388 1387 1385 1383 1381 1379 1377 1376 1375 1373 1372 1370 1368 1367 1365 1364 1362 1361 1359 1358 1356 1355 1353 1352 1351 1349 1348 1347 1345 1344 1342 1341 1339
1464 1463 1463 1462 1461 1460 1459 1458 1457 1457 1455 1454 1453 1452 1451 1450 1448 1447 1446 1445 1443 1442 1441 1439 1438 1437 1435 1434 1432 1430 1429 1427 1426 1425 1424 1422 1420 1418 1416 1414 1412 1411 1409 1407 1406 1404 1401 1397 1394 1393 1392 1391 1389 1387 1386 1384 1382 1380 1378 1377 1375 1373 1372 1370 1368 1367 1365 1364 1362 1361 1360 1358 1357 1355 1354 1352 1351 1349 1348 1347 1346 1344 1342 1341 1339 1338
1464 1463 1463 1462 1461 1460 1459 1458 1457 1456 1455 1454 1453 1452 1451 1450 1448 1447 1446 1445 1443 1442 1440 1439 1438 1437 1435 1434 1433 1431 1429 1428 1427 1425 1424 1422 1420 1418 1416 1414 1412 1411 1409 1407 1406 1404 1402 1398 1395 1392 1391 1389 1388 1387 1385 1383 1382 1380 1378 1376 1373 1372 1370 1368 1367 1365 1363 1362 1360 1359 1357 1356 1355 1353 1352 1351 1349 1348 1347 1345 1344 1343 1341 1340 1338 1337
1464 1463 1463 1462 1461 1460 1459 1458 1457 1456 1455 1454 1453 1452 1451 1450 1449 1447 1446 1445 1443 1442 1441 1439 1438 1436 1435 1434 1433 1431 1430 1428 1427 1425 1424 1422 1420 1418 1416 1414 1412 1411 1408 1407 1405 1403 1401 1399 1396 1393 1390 1388 1387 1386 1384 1382 1381 1379 1377 1375 1373 1371 1369 1367 1365 1363 1362 1360 1358 1357 1355 1354 1352 1351 1350 1348 1347 1346 1344 1343 1342 1341 1340 1338 1337 1335
1464 1464 1463 1462 1461 1460 1459 1458 1457 1457 1456 1454 1453 1452 1451 1450 1449 1447 1446 1445 1443 1442 1441 1440 1438 1437 1435 1434 1432 1431 1430 1429 1427 1426 1424 1422 1420 1418 1416 1414 1412 1411 1408 1406 1404 1402 1400 1398 1396 1393 1391 1387 1385 1384 1383 1382 1380 1378 1376 1374 1372 1370 1368 1366 1364 1362 1360 1359 1357 1355 1353 1352 1350 1349 1347 1346 1345 1343 1342 1341 1340 1338 1337 1336 1335 1333
1464 1464 1463 1462 1461 1460 1459 1458 1457 1457 1456 1455 1453 1452 1451 1450 1449 1447 1446 1445 1444 1442 1441 1440 1439 1437 1436 1435 1433 1431 1430 1429 1427 1426 1424 1422 1420 1418 1416 1414 1412 1411 1408 1406 1404 1402 1399 1397 1395 1393 1391 1388 1385 1383 1382 1381 1379 1377 1375 1373 1371 1369 1367 1365 1363 1362 1359 1357 1356 1354 1352 1350 1349 1347 1345 1344 1342 1341 1340 1338 1337 1336 1335 1334 1333 1332
1465 1464 1463 1462 1462 1461 1460 1459 1457 1457 1456 1455 1453 1452 1451 1450 1449 1447 1446 1445 1444 1442 1441 1440 1439 1438 1437 1435 1433 1432 1430 1428 1427 1425 1423 1421 1419 1417 1415 1413 1412 1410 1408 1406 1404 1402 1399 1397 1394 1392 1390 1388 1386 1383 1381 1379 1377 1376 1374 1372 1370 1368 1366 1364 1363 1361 1359 1357 1355 1353 1351 1349 1347 1346 1344 1342 1340 1339 1337 1336 1335 1334 1332 1331 1330 1329
1465 1464 1463 1462 1462 1461 1460 1459 1458 1457 1456 1455 1453 1452 1452 1450 1449 1448 1447 1445 1444 1443 1441 1440 1439 1437 1437 1435 1434 1432 1430 1428 1427 1425 1422 1421 1418 1417 1415 1413 1411 1410 1408 1406 1404 1402 1399 1397 1394 1392 1389 1388 1386 1383 1381 1378 1376 1374 1372 1371 1369 1367 1365 1363 1362 1360 1358 1356 1354 1352 1350 1348 1346 1344 1342 1340 1338 1337 1335 1333 1332 1331 1330 1329 1328 1327
1465 1464 1463 1462 1462 1461 1460 1459 1458 1457 1456 1455 1454 1453 1452 1450 1449 1448 1447 1445 1444 1443 1442 1440 1439 1437 1436 1435 1433 1432 1430 1428 1426 1424 1422 1420 1418 1416 1414 1412 1411 1409 1408 1406 1404 1402 1400 1397 1395 1392 1390 1387 1384 1382 1381 1379 1377 1374 1372 1369 1367 1366 1365 1363 1361 1359 1357 1355 1353 1351 1349 1347 1345 1343 1341 1339 1337 1335 1333 1332 1330 1329 1327 1326 1325 1324
1465 1464 1464 1463 1462 1461 1460 1459 1458 1457 1457 1455 1454 1453 1452 1451 1449 1448 1447 1446 1444 1443 1441 1440 1438 1437 1436 1434 1433 1431 1430 1427 1426 1423 1421 1419 1417 1416 1414 1412 1411 1409 1407 1406 1404 1402 1400 1397 1395 1392 1390 1387 1385 1382 1380 1378 1377 1374 1372 1369 1366 1364 1363 1362 1360 1358 1356 1354 1352 1350 1348 1346 1344 1342 1339 1337 1336 1334 1332 1330 1328 1327 1325 1324 1322 1321
1465 1465 1464 1463 1462 1461 1461 1460 1459 1458 1457 1456 1455 1453 1452 1451 1450 1449 1447 1446 1444 1443 1441 1439 1438 1437 1435 1434 1432 1430 1429 1427 1425 1423 1421 1419 1417 1416 1414 1413 1411 1409 1407 1405 1403 1402 1400 1397 1395 1392 1390 1387 1385 1382 1380 1378 1376 1374 1372 1370 1367 1364 1362 1360 1359 1357 1355 1353 1351 1349 1347 1344 1342 1340 1338 1336 1334 1332 1330 1328 1327 1325 1324 1322 1321 1320
1466 1465 1464 1463 1462 1462 1461 1460 1459 1458 1457 1456 1455 1454 1453 1452 1450 1449 1447 1446 1445 1443 1441 1440 1438 1436 1435 1433 1432 1430 1428 1426 1424 1423 1421 1419 1418 1416 1415 1413 1411 1409 1407 1404 1402 1401 1399 1397 1395 1392 1390 1388 1385 1382 1380 1377 1376 1374 1372 1370 1366 1363 1360 1358 1358 1357 1354 1352 1350 1347 1345 1343 1340 1338 1336 1333 1331 1329 1328 1326 1325 1323 1322 1321 1319 1318
1466 1465 1465 1464 1463 1462 1462 1461 1460 1459 1458 1457 1455 1454 1453 1452 1451 1450 1448 1447 1445 1443 1442 1440 1438 1437 1435 1433 1431 1430 1428 1427 1425 1423 1422 1420 1418 1417 1415 1413 1411 1408 1406 1404 1402 1400 1398 1397 1394 1392 1390 1388 1386 1383 1380 1377 1374 1373 1371 1369 1366 1363 1360 1357 1356 1354 1353 1350 1348 1346 1344 1342 1339 1336 1334 1331 1329 1327 1325 1324 1322 1321 1320 1319 1317 1316
1467 1466 1465 1464 1464 1463 1462 1461 1460 1459 1458 1457 1456 1455 1454 1453 1451 1450 1448 1447 1445 1443 1442 1440 1439 1437 1435 1433 1432 1430 1428 1427 1425 1423 1422 1420 1418 1417 1415 1413 1411 1409 1407 1405 1402 1400 1397 1396 1394 1392 1390 1388 1386 1383 1380 1377 1374 1372 1370 1368 1366 1364 1362 1358 1355 1352 1351 1348 1347 1345 1342 1340 1337 1334 1332 1329 1327 1325 1323 1322 1320 1319 1318 1317 1315 1314
1467 1466 1466 1465 1464 1463 1462 1462 1461 1460 1458 1457 1457 1455 1454 1453 1452 1450 1449 1447 1445 1444 1442 1440 1439 1437 1435 1433 1432 1430 1428 1427 1425 1423 1422 1420 1418 1417 1415 1413 1411 1409 1407 1405 1403 1401 1398 1396 1393 1392 1390 1387 1385 1382 1380 1377 1374 1371 1369 1367 1365 1363 1361 1358 1355 1352 1350 1347 1345 1343 1341 1338 1336 1332 1329 1327 1325 1323 1322 1320 1318 1317 1316 1314 1313 1312
1467 1467 1466 1465 1465 1464 1463 1462 1461 1460 1459 1458 1457 1456 1455 1454 1452 1451 1449 1447 1446 1444 1442 1441 1439 1437 1435 1433 1432 1430 1428 1426 1425 1423 1422 1420 1418 1417 1415 1413 1411 1409 1407 1405 1402 1401 1398 1396 1393 1391 1388 1386 1384 1382 1379 1377 1374 1371 1368 1366 1364 1361 1358 1356 1354 1352 1349 1346 1343 1341 1338 1336 1333 1331 1327 1325 1322 1321 1319 1318 1317 1315 1314 1312 1311 1310
1468 1467 1467 1466 1465 1464 1463 1462 1462 1461 1460 1459 1457 1457 1455 1454 1452 1451 1449 1448 1446 1445 1443 1441 1439 1437 1436 1434 1432 1430 1428 1426 1424 1422 1421 1419 1418 1416 1414 1412 1411 1409 1407 1404 1402 1400 1398 1396 1393 1391 1388 1386 1383 1380 1378 1376 1374 1371 1368 1365 1363 1360 1357 1355 1352 1350 1348 1345 1342 1339 1337 1334 1331 1328 1326 1323 1320 1318 1317 1316 1315 1314 1312 1311 1309 1307
1469 1468 1467 1467 1466 1465 1464 1463 1462 1461 1460 1459 1458 1457 1456 1454 1453 1451 1450 1448 1447 1445 1443 1442 1440 1438 1436 1434 1432 1430 1428 1426 1424 1422 1421 1419 1417 1416 1414 1412 1410 1408 1406 1404 1401 1399 1397 1395 1393 1391 1388 1386 1382 1380 1377 1375 1373 1371 1368 1365 1362 1359 1356 1353 1351 1349 1346 1343 1341 1338 1335 1333 1330 1327 1324 1321 1318 1316 1314 1313 1312 1312 1310 1309 1307 1306
1469 1468 1468 1467 1466 1466 1465 1464 1463 1462 1461 1460 1459 1457 1456 1455 1453 1452 1450 1449 1447 1445 1443 1442 1440 1438 1437 1435 1433 1431 1429 1427 1425 1423 1421 1419 1417 1415 1413 1411 1409 1407 1404 1402 1400 1398 1396 1394 1392 1390 1387 1385 1383 1380 1377 1374 1372 1369 1367 1365 1362 1359 1356 1352 1349 1347 1345 1342 1338 1336 1334 1332 1329 1327 1324 1321 1317 1314 1312 1311 1310 1309 1308 1307 1305 1303
1470 1469 1468 1468 1467 1466 1465 1464 1463 1462 1462 1460 1459 1458 1457 1455 1454 1452 1451 1449 1447 1446 1444 1442 1441 1439 1437 1435 1433 1431 1429 1427 1425 1423 1421 1419 1417 1415 1412 1410 1408 1405 1403 1401 1399 1397 1394 1392 1390 1389 1387 1385 1382 1380 1377 1373 1371 1368 1366 1364 1362 1359 1355 1352 1348 1345 1343 1340 1337 1334 1332 1330 1327 1325 1323 1321 1317 1314 1311 1309 1308 1307 1305 1304 1302 1301
1471 1470 1469 1468 1468 1467 1466 1465 1464 1463 1462 1461 1460 1458 1457 1456 1454 1453 1451 1450 1448 1446 1445 1443 1441 1439 1437 1435 1433 1432 1430 1427 1425 1423 1422 1420 1417 1415 1413 1410 1408 1405 1402 1400 1397 1395 1392 1390 1388 1387 1386 1384 1382 1379 1377 1373 1371 1368 1365 1363 1360 1358 1355 1351 1347 1344 1341 1338 1336 1333 1330 1328 1326 1324 1322 1320 1317 1313 1310 1308 1306 1304 1303 1302 1300 1298